Regional Weather Roundup
Issued by NWS

Home | Current Version | Previous Version | Text Only | Print | Product List | Glossary On
Versions: 1 2 3 4 5 6 7 8 9 10 11 12 13 14 15 16 17 18 19 20 21 22 23 24 25 26 27 28 29 30 31 32 33 34 35 36 37 38 39 40 41 42 43 44 45 46 47 48 49 50
478
ASUS43 KTOP 250508
RWRKS

WEATHER ROUNDUP FOR KANSAS
NATIONAL WEATHER SERVICE GOODLAND KS
1200 AM CDT THU AUG 25 2016

NOTE:  "FAIR" INDICATES FEW OR NO CLOUDS BELOW 12,000 FEET WITH NO
SIGNIFICANT WEATHER AND/OR OBSTRUCTIONS TO VISIBILITY.

KSZ001>006-013>018-027>032-041>047-250600-
NORTHWEST KANSAS

CITY           SKY/WX    TMP DP  RH WIND       PRES   REMARKS
GOODLAND       CLOUDY    56  51  84 N8        30.19S
HAYS           CLOUDY    64  52  63 NE8       30.08F
HILL CITY      MOCLDY    62  54  74 NE7       30.12F
RUSSELL        CLOUDY    63  56  78 NE7       30.06F
$$

KSZ061>065-074>080-084>089-250600-
SOUTHWEST KANSAS

CITY           SKY/WX    TMP DP  RH WIND       PRES   REMARKS
ELKHART          N/A     64  57  78 NW9         N/A
GARDEN CITY    LGT RAIN  63  59  87 E10       30.12R
GREAT BEND     CLOUDY    63  55  77 NE8       30.08S
LIBERAL        CLOUDY    66  61  82 N6        30.14R
PRATT          CLOUDY    67  64  90 NE10      30.04F
$$

KSZ066>073-081>083-090>101-250600-
SOUTHEAST KANSAS

CITY           SKY/WX    TMP DP  RH WIND       PRES   REMARKS
MEDICINE LODGE   N/A     73  69  87 NE8       29.98F
NEWTON         CLOUDY    69  68  96 NE6       30.04F
WICHITA INTL   CLOUDY    74  69  85 SE9       30.03R
WICHITA JABRA  CLOUDY    70  70 100 S3        30.05R
WICHITA MCCONL CLOUDY    74  68  80 S16G29    30.05R
WINFIELD       TSTM      70  68  94 E6G28     30.06R FOG
$$

KSZ007>012-019>026-033>040-048>060-102>105-250600-
NORTHEAST KANSAS

CITY           SKY/WX    TMP DP  RH WIND       PRES   REMARKS
CONCORDIA      CLEAR     61  58  90 N5        30.08S
EMPORIA        CLOUDY    72  71  97 CALM      30.04R
MARYSVILLE     CLOUDY    63  63 100 NW5       30.07R
OLATHE IND     CLOUDY    70  70 100 E5        30.03F
OLATHE EXE     CLOUDY    69  69 100 S3        30.05R
SALINA         CLOUDY    66  63  90 N10       30.07R
TOPEKA BILLARD CLOUDY    71  69  93 CALM      30.02F
TOPEKA FORBES  HVY RAIN  72  70  93 SE5       30.03R
$$




USA.gov is the U.S. government's official web portal to all federal, state and local government web resources and services.